Location: Tambov
(52.7163°N, 41.4075°E)
Time: 05:54:52
(UTC+03:00)

Envisat - Pass Details

Date: 13 March 2021
Orbit: 764 x 766 km, 98.1° (Epoch: 18 April)

Event Time Altitude Azimuth Distance (km) Brightness Sun altitude
Rises 05:04:34 0° 22° (NNE) 3,246 6.8 -14.2°
Reaches altitude 10° 05:07:12 10° 34° (NNE) 2,315 6.2 -13.8°
Maximum altitude 05:11:34 28° 93° (E) 1,409 5.2 -13.2°
Drops below altitude 10° 05:15:55 10° 152° (SSE) 2,298 5.7 -12.5°
Sets 05:18:31 0° 164° (SSE) 3,219 6.3 -12.1°
